Location: Newark
(11.2914°S, 14.4718°E)
Time: 01:51:36
(UTC+00:00)

Vanguard 2 - Pass Details

Date: 23 September 2019
Orbit: 554 x 2938 km, 32.9° (Epoch: 13 October)

Event Time Altitude Azimuth Distance (km) Brightness Sun altitude
Rises 21:17:23 0° 245° (WSW) 5,959 12.5 -63.3°
Reaches altitude 10° 21:21:00 10° 248° (WSW) 5,188 12.0 -64.1°
Enters shadow 21:28:16 34° 262° (W) 3,884 11.0 -65.7°
